Regional Weather Roundup
Issued by NWS

Home | Current Version | Previous Version | Graphics & Text | Print | Product List | Glossary On
Versions: 1 2 3 4 5 6 7 8 9 10 11 12 13 14 15 16 17 18 19 20 21 22 23 24 25 26 27 28
000
ASUS45 KTFX 230010
RWRMT
MONTANA REGIONAL WEATHER ROUNDUP
NATIONAL WEATHER SERVICE GREAT FALLS MT
600 PM MDT FRI JUL 22 2016

NOTE: "FAIR" INDICATES FEW OR NO CLOUDS BELOW 12000 FEET WITH NO
SIGNIFICANT WEATHER AND/OR OBSTRUCTIONS TO VISIBILITY.

MTZ001>007-043-230100-
WEST OF THE DIVIDE

CITY           SKY/WX    TMP DP  RH WIND       PRES   REMARKS
KALISPELL      CLOUDY    69  45  41 N13       30.09F
MISSOULA       MOSUNNY   80  46  30 NW18G24   30.05S
BUTTE          SUNNY     84  37  18 N20G31    30.02R
MULLAN PASS    MOSUNNY   56  45  66 VRB3      30.23F
ANACONDA         N/A     82  37  20 W20G30    30.00S
DEER LODGE       N/A     81  43  26 NW25G32   30.01S
EUREKA           N/A     68  48  49 E5        30.09F
HAMILTON         N/A     81  45  28 CALM      30.03R
LIBBY            N/A     70  46  43 NW3       30.10F
PLAINS           N/A     76  46  34 W10       30.09
RONAN            N/A     76  46  34 NW13      30.13S
$$

MTZ008-052>055-230100-
SOUTHWEST MONTANA

CITY           SKY/WX    TMP DP  RH WIND       PRES   REMARKS
BOZEMAN        MOSUNNY   95  30  10 SW13      29.88F
DILLON         SUNNY     84  27  12 W24G37    29.96S
W YELLOWSTONE  SUNNY     82  21  10 SW21G41   30.16F
ENNIS          SUNNY     90  21   8 SW28G33   30.01F
THREE FORKS      N/A     96 N/A N/A W12       29.87F
$$

MTZ009-010-012-014-046-048-049-054-230100-
EAST SLOPES AND CENTRAL MONTANA

CITY           SKY/WX    TMP DP  RH WIND       PRES   REMARKS
CUT BANK         N/A     78  43  28 W26G41    29.95R
GREAT FALLS    SUNNY     90  23   9 W28G43    29.85R
MALMSTROM AFB  SUNNY     90  27  10 W28G41    29.85S
HELENA         CLOUDY    90  40  17 NW21G33   29.89R
CHOTEAU          N/A     86  37  17 W26G37    29.91F
CONRAD           N/A     85  48  27 W23       29.94R
$$

MTZ011-013-016-021-045-047-050-051-230100-
NORTH CENTRAL MONTANA

CITY           SKY/WX    TMP DP  RH WIND       PRES   REMARKS
HAVRE          SUNNY     97  42  15 SW16      29.71F HX  93
LEWISTOWN      CLOUDY    86  53  32 E10       29.87F
N BAR RANCH      N/A     73  54  49 S10       29.95F
CHINOOK          N/A     97  55  24 SW7G16    29.71F HX  95
$$

MTZ017>020-022>027-061-062-230100-
NORTHEAST MONTANA

CITY           SKY/WX    TMP DP  RH WIND       PRES   REMARKS
GLASGOW        CLOUDY    88  57  34 E20G25    29.77F
JORDAN           N/A     95  52  23 SE13      29.78F HX  92
SIDNEY         MOSUNNY   91  68  46 E17G23    29.82F HX  95
WOLF POINT     CLOUDY    91  56  30 E16       29.81F
PLENTYWOOD       N/A     81  63  54 E12G20    29.91F
$$

MTZ028>42-056>058-230100-
SOUTHCENTRAL AND SOUTHEAST MONTANA

CITY           SKY/WX    TMP DP  RH WIND       PRES   REMARKS
BAKER          TSTM      75  64  68 E16       29.86R
BILLINGS       CLOUDY    93  42  17 S14G25    29.84F
LIVINGSTON     CLOUDY    96  35  11 W16       29.89F HX  91
MILES CITY     SUNNY    103  47  15 NE8       29.77F HX  99
FORSYTH          N/A     99  46  16 NW5       29.77F HX  95
LAUREL           N/A     93  43  17 SE12      29.84F
ROUNDUP          N/A     78  52  40 NW16      29.83R
$$

REGIONAL REPORTS...DAKOTAS

CITY           SKY/WX    TMP DP  RH WIND       PRES   REMARKS
WILLISTON      PTSUNNY   86  61  42 E18G28    29.87F
MINOT          SUNNY     85  63  47 NE14      29.94F
DICKINSON      PTSUNNY   83  67  58 E12       29.87F
BEACH            N/A     86  72  62 E24G30    29.88F HX  92
CROSBY           N/A     77  64  65 E12       29.96F
WATFORD CITY     N/A     86  63  45 E18       29.88F
BISMARCK       CLOUDY    83  73  72 SE13G21   29.92R
GRAND FORKS    CLOUDY    81  64  56 NE8       29.96F
FARGO          SUNNY     85  69  58 NE10      29.94F
BUFFALO SD       N/A     83  56  39 VRB3      29.85F
RAPID CITY     CLOUDY    87  54  32 S16       29.93S
$$

REGIONAL REPORTS...WYOMING/IDAHO/WASHINGTON

CITY           SKY/WX    TMP DP  RH WIND       PRES   REMARKS
GILLETTE       SUNNY     93  49  22 SE21      29.93F HX  90
SHERIDAN       CLOUDY    93  45  19 W12       29.90S
BUFFALO WY     MOSUNNY   92  39  15 W9        29.99F
CODY           MOSUNNY   88  41  19 S15       30.02F
YELLOWSTONE LA   N/A     77  28  16 SW8G22    30.29F
IDAHO FALLS    SUNNY     90  24   9 SW17G29   30.07F
SALMON         SUNNY     90  27  10 W21G29    29.94R
BOISE          SUNNY     90  39  16 NW15      30.05F
SPOKANE        PTSUNNY   69  51  52 W12       30.11F
$$

REGIONAL REPORTS...ALBERTA

CITY           SKY/WX    TMP DP  RH WIND       PRES   REMARKS
EDMONTON       MOSUNNY   79  52  38 W5        29.81F
CALGARY        CLOUDY    70  46  43 S21G29    29.90F
LETHBRIDGE     PTSUNNY   68  55  64 W29G36    29.94S
MEDICINE HAT   TSTM      72  63  73 N9G17     29.76R
WATERTON GATE    N/A     66  45  45 W13G25      N/A
MILK RIVER       N/A     68  52  56 NW25G36     N/A
ONEFOUR          N/A     88  52  29 NW24G33     N/A
$$

REGIONAL REPORTS...SASKATCHEWAN

CITY           SKY/WX    TMP DP  RH WIND       PRES   REMARKS
SWIFT CURRENT  MOSUNNY   77  61  57 E17G25    29.82F
REGINA         MOSUNNY   82  59  44 E18G25    29.90F
SASKATOON      PTSUNNY   77  57  50 E13       29.89F
VAL MARIE        N/A     84  59  42 SE23G33     N/A
ROCKGLEN         N/A     81  63  54 E20G29      N/A
ASSINIBOIA       N/A     79  55  44 S9          N/A
$$




USA.gov is the U.S. government's official web portal to all federal, state and local government web resources and services.